カタログに戻る

STARLINK-30531

運用中通信VLEO
NORAD 57998·PAYLOAD·🇺🇸 United States

打ち上げ Oct 5, 2023 から Cape Canaveral Space Force Station

Loading…

次のパス (今後24時間)

TLE

最新Source: CelesTrak SupGP

元期: Sep 15, 2026, 02:09 UTC

1 57998C 23153H   26258.09006944 -.00024831  00000+0 -89914-3 0  2588
2 57998  43.0034  77.3070 0001772 269.2202 106.2712 15.27598420    11

AllMySatでSTARLINK-30531をリアルタイム追跡

Download on the App Store